Terminal Aerodrome Forecast
Issued by NWS

Home | Current Version | Previous Version | Text Only | Print | Product List | Glossary On
Versions: 1 2 3 4 5 6 7 8 9 10 11 12 13 14
000
FTUS46 KSTO 042323
TAFRDD
TAF
KRDD 042323Z 0500/0524 18010G15KT P6SM SCT250
     FM050400 15004KT P6SM OVC250
     FM051200 VRB04KT P6SM SKC=

USA.gov is the U.S. government's official web portal to all federal, state and local government web resources and services.